Temperature
17 17 17 17 17 17 17 17 17 17 17 17 17 17 17 17 17 17 17 17 17 17 17 17 17 17 17 17 17 17 17 17 17 17 17 17 17 17 17 16 16 16 16
17 17 17 17 17 17 17 17 17 17 17 17 17 17 17 17 17 17 17 17 17 17 17 17 17 17 17 17 17 17 17 17 17 17 17 16 16 17 17 16 16 16 16
16 16 16 16 16 16 16 16 16 16 16 16 16 17 17 17 17 17 17 17 17 17 17 17 17 17 17 17 17 17 17 17 17 17 17 16 16 16 16 16 16 16 16
16 16 16 16 16 16 16 16 16 16 16 16 16 16 16 16 16 17 17 17 17 17 17 17 17 17 17 17 17 17 17 17 17 17 17 17 16 16 16 16 16 16 16
16 16 16 16 16 16 15 15 15 15 15 16 16 16 16 16 16 16 16 16 17 17 17 17 16 16 16 16 17 17 17 17 17 17 17 17 16 16 16 16 16 16 16
16 15 15 15 15 15 15 15 15 15 15 15 15 15 15 16 16 16 16 16 16 16 16 16 16 16 16 16 16 16 16 16 17 17 16 16 16 16 16 16 16 16 16
15 15 15 15 15 15 15 14 14 14 14 15 15 15 15 15 15 15 16 16 16 16 16 16 16 16 16 16 16 16 16 16 16 16 16 16 16 16 16 16 16 16 16
15 15 15 14 14 14 14 14 14 14 14 14 14 14 15 15 15 15 15 15 15 16 16 16 16 16 16 16 16 16 16 16 16 16 16 16 16 16 16 16 16 16 16
14 14 14 14 14 14 14 14 14 14 14 13 13 14 14 14 14 14 15 15 15 15 15 15 16 16 16 16 16 16 16 16 16 16 16 16 16 16 16 16 16 16 16
14 14 14 14 14 13 13 13 13 13 13 13 13 13 13 13 13 13 14 14 14 14 15 15 15 15 15 15 16 16 16 16 16 16 16 16 16 16 16 16 16 16 16
14 14 14 13 13 13 13 13 13 13 13 13 12 12 12 12 12 12 13 13 14 14 14 14 14 15 15 15 15 16 15 15 15 16 16 16 16 16 16 16 16 16 16
14 13 13 13 13 13 13 13 12 12 12 12 12 12 12 12 12 12 12 12 13 13 14 14 14 14 14 15 15 15 15 15 15 15 15 15 15 15 16 16 16 16 16
13 13 13 13 13 12 12 12 12 12 12 12 12 11 11 11 11 11 11 12 12 12 13 13 13 14 14 14 14 14 15 15 15 15 15 15 15 15 15 15 15 15 16
13 13 13 12 12 12 12 12 12 11 11 11 11 11 11 11 11 11 11 11 11 11 12 12 13 13 13 13 14 14 14 14 14 15 15 15 15 15 15 15 15 15 15
13 13 12 12 12 12 12 12 11 11 11 11 11 11 11 11 10 10 10 10 10 10 11 12 12 12 12 13 13 13 13 14 14 14 14 14 15 15 15 15 15 15 15
13 13 12 12 12 12 12 11 11 11 11 11 11 11 10 10 10 10 10 10 10 10 10 11 11 12 12 12 12 13 13 13 13 13 14 14 14 14 14 15 15 15 15
13 13 12 12 12 12 11 11 11 11 11 11 10 10 10 10 10 10 10 10 10 10 10 10 11 11 11 12 12 12 12 13 13 13 13 13 14 14 14 14 14 15 15
13 13 13 12 12 12 11 11 11 11 11 11 10 10 10 10 10 10 10 10 10 10 10 10 10 10 11 11 11 12 12 12 12 13 13 13 13 13 14 14 14 14 15
13 13 13 12 12 12 12 11 11 11 11 11 10 10 10 10 10 10 10 10 10 9 9 9 10 10 10 10 11 11 11 12 12 12 12 12 13 13 13 13 14 14 14
13 13 13 13 12 12 12 11 11 11 11 11 10 10 10 10 10 10 10 10 9 9 9 9 9 9 10 10 10 10 11 11 11 11 12 12 12 12 13 13 13 14 14
13 13 13 13 12 12 12 12 11 11 11 11 11 10 10 10 10 10 10 9 9 9 9 9 9 9 9 10 10 10 10 10 11 11 11 11 12 12 12 13 13 13 14
13 13 13 13 12 12 12 12 11 11 11 11 11 11 10 10 10 10 9 9 9 9 9 9 9 9 9 9 9 9 9 9 10 11 11 11 11 11 12 12 13 13 13
14 13 13 13 13 12 12 12 11 11 11 11 11 11 10 10 10 10 10 9 9 9 9 8 8 9 9 9 9 9 9 9 9 10 9 10 11 11 12 12 12 12 13
14 14 13 13 13 12 12 12 12 11 11 11 11 11 10 10 10 10 9 9 9 9 9 8 8 8 8 8 8 8 8 8 9 9 9 9 10 11 11 12 12 12 12
14 14 13 13 13 12 12 12 12 11 11 11 11 11 10 10 10 10 9 9 9 9 9 9 8 8 8 8 8 8 8 8 8 9 9 9 10 10 11 11 12 12 12
14 13 13 13 13 12 12 12 11 11 11 11 11 11 11 10 10 10 9 9 9 9 9 9 8 8 8 8 8 8 8 8 8 8 9 9 9 9 9 11 11 11 11
Wind_Speed
2 2 1 1 1 2 2 1 1 1 1 1 2 3 3 4 4 5 6 9 11 14 16 17 17 17 17 17 17 17 16 16 16 15 15 15 15 15 14 14 14 14 13
3 2 1 1 0 2 2 2 1 1 1 1 2 2 2 3 4 5 6 8 11 13 15 17 18 18 18 18 18 18 18 18 17 17 17 16 16 16 16 15 14 14 14
5 4 2 1 0 1 2 2 1 1 0 1 2 2 2 3 4 6 7 7 9 12 15 17 18 19 19 19 19 19 19 19 19 19 18 18 18 17 17 16 16 15 15
6 4 2 1 1 3 3 2 1 1 1 1 1 2 2 2 4 6 7 8 9 9 12 16 18 19 19 19 20 20 20 21 20 20 20 20 19 19 19 18 18 17 17
6 5 3 2 3 3 2 1 1 1 0 1 2 2 2 3 3 4 5 7 8 9 10 12 16 18 19 20 20 20 21 21 22 22 22 21 21 21 20 20 19 19 18
6 6 4 3 4 3 2 2 2 2 1 1 2 2 2 3 2 3 4 4 6 8 9 10 11 13 17 20 21 21 22 22 23 23 23 23 23 22 22 22 21 20 20
5 5 3 3 3 3 2 2 2 2 2 2 2 3 3 2 2 2 2 2 3 6 7 9 10 11 12 16 20 21 22 23 24 25 25 25 25 24 24 23 23 22 22
4 4 3 2 2 3 3 2 2 2 2 2 1 1 3 4 3 3 2 2 3 3 4 6 8 10 12 12 15 19 21 22 24 25 26 27 27 27 26 25 25 24 24
3 3 4 3 3 2 2 2 2 3 1 2 1 2 1 1 3 3 3 3 4 3 3 4 5 8 10 11 12 15 19 21 23 24 25 27 28 28 28 28 27 26 25
3 3 4 4 3 2 2 1 2 2 2 1 1 1 1 1 1 3 3 3 4 4 4 4 5 6 8 9 11 13 15 17 20 22 25 26 27 28 29 29 29 28 27
4 4 4 3 3 2 2 2 2 2 1 1 1 0 0 1 1 1 3 4 4 3 4 4 4 4 5 6 7 9 12 14 16 18 21 23 25 27 28 29 29 29 28
3 3 4 4 3 2 2 2 2 2 1 1 1 1 1 1 1 2 3 3 4 4 4 3 3 3 4 4 5 7 9 12 12 14 16 18 21 24 25 26 27 28 29
1 1 2 2 1 1 2 2 2 1 1 1 2 1 2 2 2 2 2 2 3 3 3 3 2 3 4 4 4 6 7 8 9 11 13 15 16 19 21 24 26 27 27
2 2 2 1 1 1 1 1 1 1 1 2 2 2 2 2 2 3 2 2 2 2 2 3 2 3 4 5 6 6 5 6 7 8 10 12 14 16 18 20 23 25 26
2 2 2 1 1 1 1 1 1 1 1 2 2 2 2 2 2 3 3 3 3 3 4 3 2 3 4 5 7 6 6 7 8 8 9 10 11 13 15 18 19 22 25
2 3 2 2 2 1 1 1 1 1 2 2 2 3 3 2 3 3 3 3 4 4 4 3 3 4 5 7 8 8 8 9 9 9 9 10 11 12 13 14 16 19 22
4 3 3 3 2 2 2 2 2 3 3 3 3 3 4 4 3 3 3 3 4 4 6 6 4 4 4 6 7 8 8 8 9 11 11 11 11 12 13 14 15 17 19
4 4 3 3 3 3 3 3 4 4 4 5 5 4 5 4 5 4 3 4 5 5 6 8 5 4 5 5 6 6 7 8 8 11 12 13 13 13 13 14 15 17 18
4 4 4 4 4 4 4 5 5 5 5 6 6 6 6 5 6 5 5 6 5 5 6 6 7 4 4 4 5 5 6 6 7 9 11 12 13 14 14 15 16 17 18
5 5 5 5 5 5 5 5 5 6 6 6 6 6 7 7 8 8 6 7 6 6 6 6 7 6 5 5 4 5 5 4 5 6 8 9 10 12 14 15 16 17 18
6 5 5 5 5 5 6 6 6 6 7 7 7 7 8 9 11 9 7 7 7 6 6 7 7 6 6 5 5 4 5 6 6 5 5 5 5 6 8 12 14 16 17
5 5 5 6 6 6 8 9 7 7 7 8 8 8 8 10 11 11 12 11 10 9 9 7 7 8 10 8 7 6 5 5 5 3 3 5 4 6 7 9 12 16 17
5 5 6 6 7 9 11 11 10 7 8 8 9 9 8 8 9 8 9 11 11 12 13 10 10 11 10 9 7 8 7 7 8 5 3 6 5 7 8 11 15 16 17
5 6 7 7 7 10 12 12 11 8 8 9 10 10 10 11 10 9 8 9 10 10 10 10 10 11 11 10 9 9 8 8 8 7 6 6 7 7 8 10 14 16 16
6 6 6 7 8 10 12 12 10 6 8 10 10 10 11 11 13 11 9 10 11 10 11 13 13 13 14 14 10 6 7 7 8 7 6 6 6 7 7 8 10 13 15
7 7 7 8 9 10 13 13 11 6 8 10 9 9 12 13 14 11 9 9 11 11 9 8 8 9 10 11 12 11 10 9 8 7 6 6 6 4 5 4 5 6 8
Wind_Direction
155 162 147 146 168 176 173 169 160 183 202 247 261 251 244 242 238 234 242 242 228 219 215 210 206 202 199 198 196 194 192 191 190 189 187 184 182 180 179 178 177 176 174
145 126 94 69 103 182 177 171 171 180 214 253 281 279 269 258 251 244 246 250 242 231 222 216 213 210 205 204 203 202 200 198 196 195 194 192 190 188 186 185 184 184 183
140 126 108 90 43 166 139 129 107 84 34 311 299 297 275 261 257 254 252 250 250 244 230 220 218 216 213 210 209 208 206 204 202 200 199 197 196 195 194 193 191 191 190
130 120 114 108 104 95 94 98 86 79 28 344 308 303 304 282 265 259 255 249 247 247 239 230 225 222 220 218 216 215 212 210 208 206 205 203 201 200 200 200 198 198 197
125 118 110 95 95 86 74 91 77 89 44 328 300 297 303 289 279 271 258 252 247 243 239 237 234 232 228 226 224 222 218 215 214 212 211 209 207 205 205 205 204 202 202
119 112 104 99 101 93 79 75 82 64 51 335 319 321 305 302 298 282 271 267 261 254 245 239 235 237 235 232 230 229 225 221 219 217 216 214 213 210 209 208 208 206 206
121 116 109 100 101 106 110 114 105 68 35 8 25 345 332 335 332 325 313 295 285 273 260 247 240 239 241 239 236 234 231 227 225 222 220 217 216 214 212 211 211 210 209
122 126 123 120 113 107 93 86 96 97 37 29 77 53 352 344 344 350 344 340 325 311 290 271 250 244 243 241 239 238 235 232 229 227 224 222 219 216 215 214 213 212 212
122 124 125 121 114 114 112 97 106 117 99 31 50 126 129 276 313 327 346 355 347 337 326 306 276 259 251 244 243 243 241 237 233 231 229 226 223 220 217 216 215 214 214
100 123 130 128 121 119 124 121 110 116 126 97 23 47 155 184 244 321 326 339 344 347 337 325 309 287 266 252 245 243 244 242 237 234 232 228 226 224 221 220 218 217 216
64 96 121 129 130 132 136 117 110 112 129 154 170 146 92 77 185 226 298 323 331 322 319 316 314 310 294 268 258 251 249 247 245 241 236 232 228 226 224 224 224 223 221
53 70 95 104 117 128 140 143 138 137 150 162 179 185 185 196 200 199 247 288 303 304 311 312 320 325 324 304 277 272 265 257 253 249 243 240 234 230 228 225 226 227 225
97 85 95 98 106 137 150 145 143 160 176 186 203 217 220 226 210 196 220 259 279 295 307 309 312 333 340 345 331 315 293 275 262 253 246 245 240 233 229 227 227 228 228
177 171 147 139 146 157 150 139 150 211 204 218 231 224 232 241 221 210 211 221 278 292 289 288 306 308 330 333 331 332 315 299 282 270 255 248 243 237 231 228 228 229 230
186 179 177 177 200 194 170 155 200 240 231 237 244 242 243 250 238 232 226 215 228 275 284 276 284 302 319 318 315 312 303 301 297 281 263 253 249 245 240 234 230 231 231
190 182 193 206 220 224 213 201 230 243 241 255 247 250 256 258 256 245 236 230 222 235 263 267 263 286 302 303 301 298 290 288 284 278 271 261 255 252 247 241 236 234 232
198 205 215 221 231 238 232 226 245 245 247 259 260 251 260 258 258 258 246 238 232 223 252 271 263 274 281 287 297 297 290 281 278 275 270 266 260 255 253 249 244 240 237
211 216 220 230 242 243 239 237 253 252 247 257 260 256 262 261 257 257 250 250 248 234 241 269 276 273 265 274 281 288 290 283 275 274 272 268 262 257 255 253 250 246 241
220 224 223 234 244 250 249 247 246 252 251 252 253 251 259 256 260 260 254 256 257 255 239 255 274 272 270 273 281 283 283 282 280 275 274 269 261 256 256 254 251 248 244
220 229 231 238 247 254 255 255 249 251 256 257 253 250 253 249 254 259 259 256 256 258 253 255 268 274 271 272 267 274 284 277 281 282 275 270 263 260 258 256 252 249 245
227 230 239 252 256 257 255 252 251 255 257 263 263 258 256 257 255 252 253 254 250 252 255 256 263 270 271 270 266 263 272 283 278 263 269 266 263 265 263 258 254 251 247
230 231 240 249 258 260 263 260 253 255 257 259 265 269 269 267 267 264 259 256 245 245 250 252 257 260 266 264 263 260 263 273 279 252 249 271 263 267 265 261 256 252 249
226 234 243 245 253 261 265 268 261 252 253 255 258 264 269 266 262 265 269 271 264 250 241 243 253 257 261 259 254 258 250 250 257 262 262 274 264 267 266 264 260 257 252
223 235 244 246 252 262 264 267 266 258 256 257 256 256 260 267 265 258 265 270 269 265 254 249 248 255 258 257 248 251 258 259 260 258 239 261 268 266 270 265 260 255 251
227 233 241 244 250 264 266 265 263 256 259 263 262 257 252 258 261 256 256 264 272 273 265 251 246 252 256 255 247 246 245 246 261 260 221 236 262 267 268 265 259 254 251
230 239 248 248 249 259 266 266 258 245 257 265 268 262 250 248 255 254 248 253 263 269 274 278 270 266 265 263 248 237 239 243 253 262 229 218 246 253 273 260 257 256 253
Height
1554 1555 1556 1557 1558 1559 1560 1560 1561 1562 1563 1564 1565 1565 1566 1567 1568 1569 1570 1572 1573 1574 1575 1576 1578 1579 1581 1582 1584 1586 1587 1589 1591 1593 1595 1596 1598 1600 1601 1603 1605 1607 1608
1553 1554 1555 1556 1557 1558 1558 1559 1560 1560 1561 1562 1563 1564 1564 1565 1566 1567 1568 1569 1571 1572 1573 1574 1576 1577 1579 1581 1582 1584 1586 1588 1590 1592 1594 1596 1597 1599 1601 1603 1604 1606 1608
1552 1553 1554 1554 1555 1556 1557 1557 1558 1558 1559 1560 1560 1561 1562 1563 1563 1564 1565 1567 1568 1569 1571 1572 1573 1575 1577 1578 1580 1582 1584 1586 1588 1590 1592 1594 1596 1598 1600 1602 1603 1605 1607
1551 1552 1553 1553 1554 1554 1555 1556 1556 1556 1557 1558 1558 1559 1559 1560 1561 1562 1563 1564 1565 1566 1567 1569 1570 1572 1574 1576 1577 1579 1581 1583 1586 1588 1590 1592 1594 1596 1598 1600 1602 1604 1606
1550 1551 1551 1552 1553 1553 1554 1554 1555 1555 1555 1555 1556 1556 1557 1557 1558 1558 1559 1560 1561 1563 1564 1565 1567 1568 1570 1572 1574 1576 1578 1580 1583 1585 1587 1590 1592 1594 1596 1598 1600 1602 1604
1550 1550 1550 1551 1551 1552 1552 1553 1553 1553 1553 1553 1554 1554 1554 1554 1555 1555 1556 1557 1558 1559 1560 1561 1563 1564 1566 1568 1570 1572 1574 1576 1579 1581 1584 1586 1589 1591 1593 1595 1597 1600 1602
1549 1550 1550 1550 1550 1551 1551 1552 1552 1551 1551 1552 1552 1552 1552 1552 1552 1552 1553 1553 1554 1555 1556 1557 1558 1560 1561 1563 1565 1567 1569 1571 1574 1577 1579 1582 1585 1587 1590 1592 1594 1596 1599
1549 1549 1549 1549 1549 1550 1550 1551 1551 1550 1550 1550 1550 1550 1550 1551 1550 1550 1550 1550 1551 1552 1552 1553 1554 1555 1556 1558 1560 1562 1564 1566 1569 1572 1574 1577 1580 1583 1585 1588 1590 1593 1595
1548 1548 1549 1549 1549 1549 1549 1549 1549 1549 1549 1549 1549 1549 1549 1548 1548 1548 1548 1548 1549 1549 1549 1550 1550 1551 1552 1553 1555 1557 1559 1561 1563 1566 1568 1571 1574 1577 1580 1583 1586 1588 1591
1547 1547 1548 1548 1548 1548 1548 1548 1548 1548 1548 1548 1547 1547 1548 1548 1548 1547 1547 1547 1547 1547 1547 1547 1547 1548 1548 1549 1550 1552 1554 1556 1558 1560 1562 1565 1568 1571 1574 1577 1580 1583 1586
1546 1546 1547 1547 1547 1547 1547 1547 1546 1546 1546 1546 1546 1546 1546 1546 1546 1546 1544 1545 1545 1545 1545 1545 1544 1545 1545 1545 1546 1547 1549 1551 1553 1554 1557 1559 1561 1564 1567 1570 1574 1577 1580
1545 1545 1545 1545 1545 1545 1545 1545 1545 1544 1544 1544 1544 1543 1543 1543 1543 1543 1543 1542 1542 1542 1542 1542 1542 1542 1542 1542 1542 1543 1544 1546 1547 1549 1550 1553 1555 1558 1560 1563 1567 1570 1573
1543 1543 1544 1544 1544 1543 1543 1543 1543 1542 1542 1541 1541 1541 1541 1541 1541 1541 1541 1540 1539 1539 1539 1539 1539 1539 1539 1539 1539 1539 1540 1541 1543 1544 1545 1547 1549 1552 1554 1557 1560 1563 1566
1541 1542 1542 1542 1542 1542 1541 1541 1540 1540 1539 1539 1539 1539 1538 1538 1538 1538 1538 1537 1536 1535 1535 1536 1536 1536 1536 1536 1536 1536 1537 1537 1538 1539 1540 1542 1543 1545 1548 1550 1553 1556 1559
1540 1540 1540 1540 1540 1540 1539 1538 1538 1538 1537 1537 1537 1536 1536 1536 1536 1535 1535 1535 1535 1533 1531 1532 1533 1533 1533 1533 1533 1533 1533 1533 1534 1534 1535 1536 1538 1539 1541 1543 1545 1548 1551
1538 1539 1539 1539 1538 1538 1537 1536 1536 1535 1535 1535 1534 1534 1534 1533 1533 1533 1532 1532 1531 1530 1528 1528 1528 1529 1529 1529 1529 1529 1529 1529 1530 1530 1531 1531 1532 1533 1535 1536 1539 1541 1543
1537 1537 1537 1537 1536 1536 1535 1535 1534 1534 1533 1533 1532 1532 1531 1530 1530 1529 1529 1528 1528 1527 1525 1524 1524 1524 1524 1524 1524 1524 1524 1524 1525 1525 1526 1526 1527 1528 1529 1530 1532 1534 1536
1536 1535 1535 1535 1535 1534 1534 1533 1532 1532 1531 1530 1530 1529 1528 1527 1526 1526 1525 1524 1524 1523 1521 1519 1519 1519 1519 1519 1518 1518 1519 1519 1519 1520 1520 1520 1521 1521 1522 1524 1525 1527 1528
1534 1534 1533 1533 1533 1532 1532 1531 1530 1529 1529 1528 1527 1526 1525 1524 1523 1522 1521 1520 1519 1518 1517 1516 1514 1514 1513 1513 1513 1513 1513 1513 1513 1514 1514 1514 1515 1515 1516 1517 1518 1519 1521
1532 1532 1531 1531 1530 1530 1529 1528 1527 1526 1526 1525 1524 1523 1521 1520 1519 1518 1516 1515 1514 1513 1512 1511 1510 1509 1508 1508 1507 1507 1506 1507 1507 1507 1508 1508 1509 1509 1510 1510 1511 1512 1514
1529 1529 1529 1529 1528 1527 1526 1525 1524 1523 1522 1521 1520 1519 1517 1516 1515 1513 1512 1511 1510 1509 1508 1506 1505 1504 1503 1503 1502 1502 1501 1500 1500 1501 1501 1502 1502 1502 1503 1503 1504 1505 1506
1527 1527 1526 1526 1525 1524 1523 1522 1521 1520 1518 1517 1516 1515 1513 1512 1510 1509 1507 1506 1505 1504 1502 1501 1500 1499 1498 1498 1497 1496 1495 1495 1494 1495 1495 1495 1495 1495 1496 1497 1497 1498 1498
1524 1523 1523 1522 1521 1521 1520 1519 1517 1516 1514 1513 1511 1510 1509 1507 1506 1504 1502 1501 1500 1499 1498 1496 1494 1493 1493 1492 1492 1491 1490 1489 1488 1489 1489 1487 1488 1488 1489 1489 1490 1490 1491
1520 1519 1519 1518 1517 1517 1516 1515 1513 1512 1510 1509 1507 1505 1504 1502 1501 1499 1497 1495 1494 1493 1492 1490 1489 1488 1487 1487 1486 1485 1484 1483 1482 1483 1482 1480 1480 1481 1481 1482 1482 1483 1483
1515 1515 1515 1514 1513 1512 1512 1510 1509 1507 1505 1504 1502 1500 1499 1497 1496 1494 1492 1490 1488 1487 1486 1485 1483 1482 1481 1480 1480 1479 1478 1477 1475 1475 1476 1475 1474 1474 1473 1474 1474 1475 1476
1511 1510 1510 1509 1508 1507 1507 1506 1504 1502 1500 1498 1497 1495 1493 1492 1490 1488 1486 1484 1482 1481 1480 1478 1477 1475 1474 1473 1473 1472 1471 1470 1469 1468 1468 1469 1468 1468 1467 1466 1467 1468 1469